Location: Unspecified
(29.9680°N, 0.0000°E)
Time: 18:53:52
(UTC+00:00)

A-11 Canister half - Pass Details

Date: 18 June 2019
Orbit: 1526 x 1683 km, 47.3° (Epoch: 20 July)

Event Time Altitude Azimuth Distance (km) Brightness Sun altitude
Rises 04:05:34 0° 219° (SW) 4,777 - -10.7°
Exits shadow 04:08:35 10° 217° (SW) 3,807 10.5 -10.2°
Reaches altitude 10° 04:08:42 10° 217° (SW) 3,773 10.4 -10.1°
Maximum altitude 04:18:09 71° 135° (SE) 1,619 9.2 -8.4°
Drops below altitude 10° 04:27:24 10° 54° (NE) 3,697 12.8 -6.7°
Sets 04:30:26 0° 52° (NE) 4,677 14.1 -6.2°
